Weather History for Hereford, TX

Change the Weather History Date:

Saturday, May 12, 2012

  Actual Average (KAMA) Record (KAMA)
Temperature  
Mean Temperature 55 °F 64 °F  
Max Temperature 69 °F 78 °F 99 °F (1962)
Min Temperature 41 °F 51 °F 35 °F (1946)
Degree Days  
Heating Degree Days 10 3  
Month to date heating degree days 49  
Since 1 July heating degree days 4137  
Cooling Degree Days 0 3  
Month to date cooling degree days 23  
Year to date cooling degree days 44  
Growing Degree Days 5 (Base 50)    
Moisture  
Dew Point 44 °F    
Average Humidity 69    
Maximum Humidity 93    
Minimum Humidity 40    
Precipitation  
Precipitation 0.00 in 0.07 in 1.01 in (1927)
Month to date precipitation 0.67  
Year to date precipitation 4.74  
Snow  
Snow 0.00 in 0.00 in T in (2005)
Month to date snowfall 0.2  
Since 1 July snowfall 17.8  
Snow Depth -    
Sea Level Pressure  
Sea Level Pressure 30.28 in    
Wind  
Wind Speed 8 mph (NE)    
Max Wind Speed 15 mph    
Max Gust Speed 21 mph    
Visibility 10 miles    
Events Rain    
T = Trace of Precipitation, MM = Missing Value Source: NWS Daily Summary

Daily Weather History Graph

Daily Weather History Graph

Search for Another Location

Airport:

Trip Planner

Search our weather history database for the weather conditions in past years. The results will help you decide how hot, cold, wet, or windy it might be!

Date:

Astronomy

May. 12, 2012 Rise Set
Actual Time 6:47 AM CDT 8:43 PM CDT
Civil Twilight 6:20 AM CDT 9:11 PM CDT
Nautical Twilight 5:46 AM CDT 9:45 PM CDT
Astronomical Twilight 5:10 AM CDT 10:21 PM CDT
Moon 2:03 AM CDT (5/12) 1:23 PM CDT (5/12)
Length of Visible Light 14h 51m
Length of Day
13h 55m
Waning Gibbous, 52% of the Moon is Illuminated
May 12
Waning Gibbous
May 12
Last Quarter
May 20
New
May 28
First Quarter
Jun 4
Full

Hourly Weather History & Observations

Time (CDT) Temp. Windchill Dew Point Humidity Pressure Visibility Wind Dir Wind Speed Gust Speed Precip Events Conditions
12:15 AM 44.6 °F 41.4 °F 42.8 °F 93% 30.22 in 10.0 mi North 5.8 mph - N/A   Clear
12:35 AM 44.6 °F 40.7 °F 41.0 °F 87% 30.22 in 10.0 mi North 6.9 mph - N/A   Clear
12:55 AM 42.8 °F 38.6 °F 41.0 °F 93% 30.22 in 10.0 mi NNW 6.9 mph - N/A   Clear
1:15 AM 44.6 °F 40.7 °F 42.8 °F 93% 30.23 in 10.0 mi NW 6.9 mph - N/A   Clear
1:35 AM 44.6 °F 40.7 °F 42.8 °F 93% 30.23 in 7.0 mi NNW 6.9 mph - N/A   Clear
1:55 AM 44.6 °F 40.2 °F 42.8 °F 93% 30.24 in 7.0 mi NNW 8.1 mph - N/A   Clear
2:15 AM 44.6 °F 41.4 °F 42.8 °F 93% 30.24 in 7.0 mi NW 5.8 mph - N/A   Clear
2:35 AM 44.6 °F 40.2 °F 42.8 °F 93% 30.24 in 7.0 mi NNW 8.1 mph - N/A   Clear
2:55 AM 44.6 °F 40.2 °F 42.8 °F 93% 30.24 in 10.0 mi NNW 8.1 mph - N/A   Clear
3:15 AM 44.6 °F 40.7 °F 42.8 °F 93% 30.24 in 10.0 mi NNW 6.9 mph - N/A   Clear
3:35 AM 44.6 °F 40.2 °F 41.0 °F 87% 30.23 in 7.0 mi NNW 8.1 mph - N/A   Clear
3:55 AM 42.8 °F 38.6 °F 41.0 °F 93% 30.23 in 7.0 mi NNW 6.9 mph - N/A   Clear
4:15 AM 42.8 °F 38.6 °F 41.0 °F 93% 30.23 in 7.0 mi NNW 6.9 mph - N/A   Clear
4:35 AM 42.8 °F 38.6 °F 41.0 °F 93% 30.24 in 10.0 mi NNW 6.9 mph - N/A   Clear
4:55 AM 42.8 °F 38.0 °F 41.0 °F 93% 30.24 in 7.0 mi NNW 8.1 mph - N/A   Clear
5:15 AM 42.8 °F 39.3 °F 41.0 °F 93% 30.26 in 10.0 mi NNW 5.8 mph - N/A   Clear
5:35 AM 42.8 °F 38.6 °F 41.0 °F 93% 30.26 in 10.0 mi NNW 6.9 mph - N/A   Clear
6:15 AM 41.0 °F 37.1 °F 39.2 °F 93% 30.26 in 10.0 mi NNE 5.8 mph - N/A   Clear
6:35 AM 41.0 °F 38.0 °F 37.4 °F 87% 30.26 in 7.0 mi NNE 4.6 mph - N/A   Clear
6:55 AM 41.0 °F - 37.4 °F 87% 30.27 in 5.0 mi Calm Calm - N/A   Clear
7:15 AM 41.0 °F - 37.4 °F 87% 30.28 in 10.0 mi Calm Calm - N/A   Clear
7:35 AM 42.8 °F 40.1 °F 41.0 °F 93% 30.28 in 7.0 mi East 4.6 mph - N/A   Clear
7:55 AM 44.6 °F - 42.8 °F 93% 30.29 in 10.0 mi Calm Calm - N/A   Clear
8:35 AM 50.0 °F - 44.6 °F 82% 30.31 in 10.0 mi NNE 5.8 mph - N/A   Clear
8:55 AM 51.8 °F - 46.4 °F 82% 30.32 in 10.0 mi NNE 6.9 mph - N/A   Clear
9:15 AM 53.6 °F - 46.4 °F 77% 30.32 in 10.0 mi NE 8.1 mph - N/A   Clear
9:35 AM 55.4 °F - 46.4 °F 72% 30.32 in 10.0 mi NE 9.2 mph - N/A   Clear
9:55 AM 59.0 °F - 44.6 °F 59% 30.32 in 10.0 mi NE 12.7 mph - N/A   Clear
10:35 AM 60.8 °F - 44.6 °F 55% 30.32 in 10.0 mi ENE 12.7 mph - N/A   Clear
10:55 AM 60.8 °F - 44.6 °F 55% 30.32 in 10.0 mi ENE 10.4 mph - N/A   Clear
11:15 AM 62.6 °F - 44.6 °F 52% 30.32 in 10.0 mi East 11.5 mph - N/A   Clear
11:35 AM 62.6 °F - 44.6 °F 52% 30.32 in 10.0 mi NE 8.1 mph 17.3 mph N/A   Mostly Cloudy
11:55 AM 64.4 °F - 44.6 °F 49% 30.32 in 10.0 mi ENE 8.1 mph - N/A   Mostly Cloudy
12:15 PM 64.4 °F - 44.6 °F 49% 30.32 in 10.0 mi East 9.2 mph 20.7 mph N/A   Clear
12:55 PM 64.4 °F - 44.6 °F 49% 30.32 in 10.0 mi NE 12.7 mph 17.3 mph N/A   Scattered Clouds
1:15 PM 64.4 °F - 44.6 °F 49% 30.32 in 10.0 mi ESE 8.1 mph - N/A   Mostly Cloudy
1:35 PM 64.4 °F - 44.6 °F 49% 30.31 in 10.0 mi East 11.5 mph 17.3 mph N/A   Mostly Cloudy
1:55 PM 64.4 °F - 44.6 °F 49% 30.31 in 10.0 mi NE 8.1 mph - N/A   Mostly Cloudy
2:15 PM 64.4 °F - 44.6 °F 49% 30.31 in 10.0 mi NE 9.2 mph - N/A   Mostly Cloudy
2:35 PM 64.4 °F - 44.6 °F 49% 30.31 in 10.0 mi ENE 8.1 mph - N/A   Overcast
2:55 PM 66.2 °F - 44.6 °F 46% 30.31 in 10.0 mi ENE 9.2 mph - N/A   Overcast
3:35 PM 66.2 °F - 44.6 °F 46% 30.29 in 10.0 mi ENE 11.5 mph - N/A   Overcast
3:55 PM 68.0 °F - 44.6 °F 43% 30.28 in 10.0 mi ENE 8.1 mph - N/A   Mostly Cloudy
4:15 PM 68.0 °F - 44.6 °F 43% 30.28 in 10.0 mi SE 6.9 mph - N/A   Mostly Cloudy
4:35 PM 66.2 °F - 44.6 °F 46% 30.27 in 10.0 mi East 5.8 mph - N/A   Mostly Cloudy
4:55 PM 68.0 °F - 44.6 °F 43% 30.26 in 10.0 mi East 9.2 mph 16.1 mph N/A   Scattered Clouds
5:15 PM 68.0 °F - 44.6 °F 43% 30.26 in 10.0 mi ESE 6.9 mph - N/A   Mostly Cloudy
5:35 PM 68.0 °F - 44.6 °F 43% 30.26 in 10.0 mi ESE 8.1 mph - N/A   Mostly Cloudy
5:55 PM 69.8 °F - 44.6 °F 40% 30.25 in 10.0 mi ESE 12.7 mph 18.4 mph N/A   Scattered Clouds
6:15 PM 68.0 °F - 44.6 °F 43% 30.26 in 10.0 mi East 12.7 mph - N/A   Scattered Clouds
6:35 PM 68.0 °F - 44.6 °F 43% 30.24 in 10.0 mi ESE 12.7 mph - N/A   Clear
6:55 PM 68.0 °F - 44.6 °F 43% 30.24 in 10.0 mi East 13.8 mph 17.3 mph N/A   Scattered Clouds
7:15 PM 64.4 °F - 46.4 °F 52% 30.24 in 10.0 mi East 11.5 mph - N/A   Scattered Clouds
7:35 PM 64.4 °F - 46.4 °F 52% 30.25 in 10.0 mi East 15.0 mph - N/A   Clear
7:55 PM 62.6 °F - 46.4 °F 55% 30.26 in 10.0 mi East 11.5 mph - N/A   Clear
8:15 PM 60.8 °F - 46.4 °F 59% 30.26 in 10.0 mi East 11.5 mph - N/A   Clear
8:35 PM 60.8 °F - 46.4 °F 59% 30.27 in 10.0 mi East 10.4 mph - N/A   Clear
8:55 PM 59.0 °F - 46.4 °F 63% 30.28 in 10.0 mi East 9.2 mph - N/A   Clear
9:15 PM 59.0 °F - 46.4 °F 63% 30.29 in 10.0 mi East 9.2 mph - N/A   Clear
9:35 PM 57.2 °F - 46.4 °F 67% 30.29 in 10.0 mi East 10.4 mph - N/A   Clear
9:55 PM 55.4 °F - 46.4 °F 72% 30.31 in 10.0 mi ENE 5.8 mph - N/A   Clear
10:15 PM 53.6 °F - 46.4 °F 77% 30.31 in 10.0 mi East 6.9 mph - N/A   Clear
10:35 PM 53.6 °F - 46.4 °F 77% 30.31 in 10.0 mi East 8.1 mph - N/A   Clear
10:55 PM 53.6 °F - 46.4 °F 77% 30.32 in 10.0 mi East 6.9 mph - N/A   Clear
11:15 PM 53.6 °F - 46.4 °F 77% 30.32 in 10.0 mi ESE 4.6 mph - N/A   Mostly Cloudy
11:35 PM 53.6 °F - 46.4 °F 77% 30.34 in 10.0 mi North 6.9 mph - N/A   Mostly Cloudy
11:55 PM 53.6 °F - 48.2 °F 82% 30.32 in 10.0 mi East 5.8 mph - N/A Rain Light Rain